Weather History for Grand Forks, ND

Change the Weather History Date:

Thursday, June 12, 2014

  Actual Average Record
Temperature  
Mean Temperature 61 °F 63 °F  
Max Temperature 72 °F 75 °F 96 °F (1956)
Min Temperature 49 °F 51 °F 34 °F (1969)
Degree Days  
Heating Degree Days 4 4  
Month to date heating degree days 31 60  
Since 1 June heating degree days 31 60  
Since 1 July heating degree days 10572 9472  
Cooling Degree Days 0 2  
Month to date cooling degree days 12 20  
Year to date cooling degree days 65 37  
Since 1 June cooling degree days 12 20  
Growing Degree Days 10 (Base 50)    
Moisture  
Dew Point 45 °F    
Average Humidity 59    
Maximum Humidity 83    
Minimum Humidity 35    
Precipitation  
Precipitation T in 0.11 in 0.99 in (2000)
Month to date precipitation 3.18 1.28  
Year to date precipitation 10.36 7.00  
Snow  
Snow 0.00 in 0.00 in - ()
Month to date snowfall 0.0 0.0  
Since 1 June snowfall 0.0 0.0  
Since 1 July snowfall 60.3 47.4  
Snow Depth 0.00 in    
Sea Level Pressure  
Sea Level Pressure 29.93 in    
Wind  
Wind Speed 15 mph (NNW)    
Max Wind Speed 28 mph    
Max Gust Speed 37 mph    
Visibility 10 miles    
Events      
T = Trace of Precipitation, MM = Missing Value Source: NWS Daily Summary

Daily Weather History Graph

Daily Weather History Graph

Search for Another Location

Airport:

Trip Planner

Search our weather history database for the weather conditions in past years. The results will help you decide how hot, cold, wet, or windy it might be!

Date:

Astronomy

Jun. 12, 2014 Rise Set
Actual Time 5:29 AM CDT 9:28 PM CDT
Civil Twilight 4:48 AM CDT 10:09 PM CDT
Nautical Twilight 3:51 AM CDT 11:06 PM CDT
Astronomical Twilight 2:19 AM CDT 12:39 AM CDT
Moon 8:55 PM CDT (6/12) 5:18 AM CDT (6/12)
Length of Visible Light 17h 21m
Length of Day
15h 59m
Full, 100% of the Moon is Illuminated
Jun 12
Full
Jun 12
Full
Jun 19
Last Quarter
Jun 27
New
Jul 5
First Quarter

Hourly Weather History & Observations

Time (CDT) Temp. Dew Point Humidity Pressure Visibility Wind Dir Wind Speed Gust Speed Precip Events Conditions
12:50 AM 53.6 °F 48.2 °F 82% 29.87 in 10.0 mi NNW 16.1 mph - 0.00 in   Mostly Cloudy
12:53 AM 53.1 °F 48.0 °F 83% 29.88 in 10.0 mi North 17.3 mph 23.0 mph 0.00 in   Mostly Cloudy
1:41 AM 51.8 °F 46.4 °F 82% 29.87 in 10.0 mi North 18.4 mph 27.6 mph 0.00 in   Overcast
1:53 AM 52.0 °F 46.0 °F 80% 29.88 in 10.0 mi North 19.6 mph 27.6 mph 0.00 in   Overcast
2:06 AM 51.8 °F 46.4 °F 82% 29.86 in 10.0 mi NNW 17.3 mph 25.3 mph N/A   Overcast
2:32 AM 50.0 °F 44.6 °F 82% 29.87 in 10.0 mi NNW 19.6 mph 25.3 mph N/A   Mostly Cloudy
2:53 AM 50.0 °F 43.0 °F 77% 29.89 in 10.0 mi NNW 20.7 mph 31.1 mph N/A   Partly Cloudy
3:11 AM 50.0 °F 42.8 °F 76% 29.87 in 10.0 mi NNW 16.1 mph 27.6 mph N/A   Mostly Cloudy
3:53 AM 50.0 °F 44.1 °F 80% 29.88 in 10.0 mi NNW 17.3 mph - N/A   Overcast
4:53 AM 50.0 °F 44.1 °F 80% 29.89 in 10.0 mi NNW 15.0 mph - N/A   Overcast
5:53 AM 50.0 °F 43.0 °F 77% 29.91 in 10.0 mi NNW 13.8 mph 21.9 mph N/A   Overcast
6:53 AM 50.0 °F 43.0 °F 77% 29.93 in 10.0 mi NNW 17.3 mph 23.0 mph N/A   Overcast
7:53 AM 50.0 °F 42.1 °F 74% 29.94 in 10.0 mi NNW 20.7 mph 31.1 mph N/A   Overcast
9:53 AM 54.0 °F 44.1 °F 69% 29.97 in 10.0 mi NNW 19.6 mph 28.8 mph N/A   Scattered Clouds
10:53 AM 57.9 °F 45.0 °F 62% 29.97 in 10.0 mi NNW 23.0 mph 31.1 mph N/A   Scattered Clouds
11:53 AM 62.1 °F 42.1 °F 48% 29.98 in 10.0 mi NNW 26.5 mph 34.5 mph N/A   Scattered Clouds
12:53 PM 64.0 °F 42.1 °F 45% 29.99 in 10.0 mi NNW 23.0 mph 33.4 mph N/A   Scattered Clouds
1:53 PM 66.0 °F 39.9 °F 38% 29.99 in 10.0 mi North 19.6 mph 31.1 mph N/A   Partly Cloudy
2:53 PM 68.0 °F 42.1 °F 39% 29.98 in 10.0 mi North 19.6 mph 25.3 mph N/A   Scattered Clouds
3:53 PM 69.8 °F 42.8 °F 38% 29.97 in 10.0 mi NNW 20.7 mph - N/A   Scattered Clouds
4:53 PM 71.1 °F 43.0 °F 36% 29.96 in 10.0 mi NNW 17.3 mph 27.6 mph N/A   Scattered Clouds
5:53 PM 70.0 °F 43.0 °F 38% 29.96 in 10.0 mi North 13.8 mph - N/A   Scattered Clouds
6:53 PM 71.1 °F 42.1 °F 35% 29.95 in 10.0 mi NNW 12.7 mph - N/A   Partly Cloudy
7:53 PM 69.1 °F 46.0 °F 44% 29.95 in 10.0 mi North 5.8 mph - N/A   Partly Cloudy
8:53 PM 66.0 °F 48.0 °F 52% 29.95 in 10.0 mi Calm Calm - N/A   Partly Cloudy
9:53 PM 60.1 °F 48.9 °F 67% 29.97 in 10.0 mi Calm Calm - N/A   Clear
10:53 PM 59.0 °F 48.0 °F 67% 29.98 in 10.0 mi Calm Calm - N/A   Clear
11:53 PM 54.0 °F 48.9 °F 83% 29.97 in 10.0 mi South 3.5 mph - N/A   Clear